Total_Precipitation_Accumulation
1.55 1.65 1.58 1.53 1.54 1.53 1.63 1.72 1.67 1.48 1.29 1.20 1.08 0.96 0.93 0.92 0.89 0.88 0.86 0.75 0.65 0.60 0.56 0.54 0.57 0.60 0.69 0.85 1.02 1.19 1.30 1.39 1.46 1.53 1.64 1.79 1.95 2.14
1.39 1.44 1.49 1.52 1.64 1.58 1.62 1.70 1.75 1.66 1.36 1.27 1.18 0.98 1.03 0.81 0.79 0.82 0.83 0.73 0.58 0.51 0.49 0.49 0.51 0.55 0.57 0.62 0.73 0.88 1.03 1.13 1.22 1.31 1.34 1.36 1.39 1.49
1.06 1.10 1.15 1.23 1.36 1.38 1.44 1.51 1.62 1.67 1.42 1.37 1.49 1.36 1.33 1.11 0.95 0.87 0.73 0.69 0.62 0.52 0.46 0.44 0.45 0.49 0.55 0.57 0.57 0.64 0.75 0.87 0.96 1.08 1.23 1.32 1.37 1.40
0.92 0.93 0.90 0.98 1.13 1.17 1.25 1.35 1.51 1.71 1.56 1.49 1.62 1.66 1.57 1.38 1.25 1.08 0.81 0.65 0.68 0.64 0.49 0.43 0.41 0.44 0.51 0.55 0.53 0.53 0.57 0.63 0.69 0.77 0.92 1.06 1.20 1.32
0.70 0.68 0.67 0.74 0.86 0.98 1.11 1.17 1.28 1.59 1.66 1.53 1.58 1.82 1.80 1.63 1.58 1.32 1.12 1.02 0.76 0.70 0.57 0.46 0.44 0.44 0.49 0.57 0.58 0.54 0.52 0.53 0.56 0.62 0.74 0.89 1.00 1.09
0.57 0.49 0.47 0.56 0.69 0.82 0.92 1.03 1.15 1.31 1.51 1.57 1.57 1.78 1.88 1.77 1.87 1.66 1.42 1.26 1.03 0.80 0.72 0.54 0.48 0.49 0.49 0.52 0.57 0.60 0.62 0.60 0.62 0.68 0.74 0.80 0.92 1.01
0.58 0.46 0.41 0.44 0.51 0.63 0.68 0.81 0.97 1.13 1.24 1.40 1.52 1.67 1.90 1.91 1.78 1.76 1.59 1.42 1.31 1.19 1.16 0.83 0.57 0.49 0.48 0.50 0.56 0.64 0.71 0.75 0.77 0.83 0.92 0.98 1.02 1.06
0.58 0.54 0.46 0.41 0.40 0.45 0.50 0.57 0.66 0.78 0.96 1.17 1.29 1.43 1.67 1.87 1.85 1.87 1.78 1.54 1.42 1.35 1.41 1.42 1.09 0.84 0.67 0.49 0.49 0.58 0.71 0.82 0.87 0.92 1.00 1.14 1.27 1.26
0.56 0.55 0.43 0.36 0.39 0.39 0.41 0.43 0.49 0.49 0.57 0.79 0.94 1.01 1.18 1.48 1.80 1.92 1.99 1.84 1.64 1.60 1.62 1.71 1.79 1.53 1.04 0.73 0.63 0.55 0.63 0.76 0.84 0.91 1.00 1.06 1.23 1.39
0.54 0.51 0.49 0.45 0.45 0.49 0.50 0.47 0.41 0.40 0.41 0.45 0.54 0.73 0.89 1.14 1.51 1.72 1.96 2.13 2.00 1.90 1.87 1.94 2.01 2.22 1.77 1.21 0.98 0.76 0.71 0.75 0.83 0.89 0.97 1.06 1.14 1.25
0.56 0.56 0.55 0.53 0.52 0.47 0.49 0.51 0.44 0.42 0.40 0.42 0.46 0.61 0.80 0.92 1.20 1.54 1.78 1.89 1.96 2.03 2.03 2.09 2.07 2.21 2.53 2.11 1.43 1.04 0.82 0.75 0.79 0.86 0.91 1.03 1.11 1.11
0.73 0.70 0.59 0.51 0.51 0.47 0.45 0.51 0.50 0.49 0.53 0.52 0.52 0.56 0.63 0.75 0.96 1.23 1.45 1.62 1.66 1.79 1.72 1.68 1.71 1.84 2.28 2.57 2.23 1.61 1.15 0.94 0.82 0.79 0.81 0.92 1.03 0.95
0.83 0.84 0.78 0.63 0.49 0.45 0.46 0.51 0.51 0.58 0.66 0.66 0.66 0.69 0.77 0.81 0.87 1.06 1.30 1.49 1.55 1.41 1.24 1.34 1.50 1.58 1.65 1.92 2.16 2.11 1.73 1.38 1.15 0.99 0.91 0.90 0.94 0.95
1.02 0.99 0.94 0.78 0.63 0.53 0.47 0.50 0.54 0.55 0.62 0.68 0.67 0.68 0.73 0.76 0.80 0.95 1.15 1.30 1.42 1.43 1.34 1.40 1.55 1.57 1.62 1.67 1.75 1.85 1.91 1.77 1.60 1.46 1.35 1.31 1.17 1.11
1.20 1.17 1.10 0.88 0.73 0.60 0.52 0.52 0.53 0.54 0.59 0.63 0.61 0.59 0.62 0.68 0.78 0.94 1.10 1.26 1.33 1.30 1.28 1.32 1.38 1.37 1.45 1.52 1.49 1.46 1.57 1.70 1.72 1.69 1.70 1.66 1.54 1.40
1.25 1.17 1.10 0.98 0.84 0.76 0.70 0.63 0.58 0.63 0.66 0.65 0.66 0.68 0.73 0.83 0.92 0.96 1.08 1.21 1.35 1.31 1.25 1.28 1.32 1.38 1.33 1.22 1.17 1.07 1.08 1.22 1.39 1.53 1.71 1.87 1.90 1.85
1.39 1.29 1.22 1.13 1.04 0.98 0.94 0.88 0.81 0.82 0.80 0.80 0.83 0.83 0.83 0.88 0.95 0.99 1.06 1.09 1.13 1.16 1.19 1.24 1.33 1.40 1.37 1.29 1.18 1.03 0.97 0.92 0.98 1.24 1.53 1.78 1.83 1.69
1.17 1.18 1.18 1.15 1.08 1.05 1.05 1.00 0.96 0.93 0.92 0.91 0.92 0.91 0.86 0.87 0.94 1.05 1.14 1.11 1.03 1.03 1.11 1.18 1.38 1.56 1.57 1.41 1.11 0.99 0.97 0.93 0.92 1.07 1.22 1.30 1.32 1.24
1.00 1.07 1.05 1.04 1.02 1.02 1.02 0.98 0.95 0.94 0.97 0.98 0.93 0.92 0.92 0.92 0.95 1.04 1.13 1.14 1.08 1.05 1.14 1.26 1.36 1.44 1.39 1.22 1.06 0.85 0.84 0.85 0.94 1.06 1.11 1.08 0.97 0.87
0.97 1.02 1.02 1.02 1.03 1.05 1.05 1.00 0.99 1.01 1.03 1.03 1.00 0.98 1.00 1.00 1.01 1.03 1.09 1.14 1.10 1.09 1.15 1.24 1.26 1.27 1.22 1.08 0.99 0.90 0.74 0.80 0.86 0.92 0.99 1.01 0.92 0.78
1.09 1.11 1.10 1.07 1.08 1.10 1.09 1.06 1.06 1.03 1.01 1.05 1.05 1.04 1.02 1.01 1.05 1.07 1.12 1.18 1.15 1.11 1.05 1.03 1.09 1.17 1.27 1.40 1.28 1.10 0.96 0.83 0.86 0.86 0.93 1.03 1.03 0.97
1.03 1.07 1.08 1.06 1.10 1.14 1.11 1.08 1.09 1.07 1.04 1.04 1.04 1.05 1.05 1.01 1.01 1.06 1.10 1.13 1.10 1.05 1.01 1.03 1.18 1.35 1.41 1.42 1.32 1.21 1.18 1.14 1.09 1.03 0.96 0.89 0.88 0.86
1.03 1.06 1.03 1.01 1.04 1.07 1.02 0.99 1.03 1.07 1.09 1.10 1.08 1.06 1.05 1.02 1.00 1.04 1.09 1.13 1.14 1.16 1.17 1.21 1.24 1.31 1.35 1.37 1.39 1.35 1.26 1.24 1.24 1.21 1.12 0.94 0.70 0.59